If you wish to contribute or participate in the discussions about articles you are invited to join SKYbrary as a registered user

 Actions

Angel S Adami Airport

From SKYbrary Wiki

SUAA
Airport
ICAO: SUAA
Summary
Name Angel S Adami Airport
Region
Territory Uruguay UY.gif
Location , Montevideo
Serving Montevideo
Elevation 53.035 m
174 ft
174 ft53.035 m
Type medium airport
Coordinates -34° 47' 21.1488", -56° 15' 52.9308"
Runways
Designator Length Width Surface ROPS
18/36 1250 m4,101.05 ft 23 m75.459 ft CON /


METAR
Observation SUAA 191400Z 02012KT CAVOK 11/06 Q1020
Station Melilla
Date/Time 19 June 2018 14:00:00
Wind direction 20°
Wind speed 12 kts
Lowest cloud amount clouds and visibility OK
Temperature 11°C
Dew point 6°C
Humidity 71%
QNH 1020 hPa
Weather condition n/a